[[{"header":{"parameterUnit":"m.s-1","parameterCategory":1,"la1":30.2991,"la2":30.254,"lo1":-89.0895,"lo2":-89.0444,"dy":0.0017,"dx":0.0017,"nx":28,"ny":28,"refTime":"2024-05-24T03:00:00:Z","depth":0,"parameterNumber":2,"parameterNumberName":"U-component_of_WINDS"},"data":[0,0,0,0,0,0,0,0,0,0,0,0,0,0,0,0,0,0,0,0,0,0,0,0,0,0,0,0,0,0,0,0,0,0,0,0,0,0,0,0,0,0,0,0,0,0,0,0,0,0,0,0,0,0,0,0,0,0,0.3931,0.3932,0,0.4029,0.403,0.4031,0.4067,0.4067,0.4067,0.4066,0.4168,0.4171,0.4174,0,0,0,0,0,0,0,0,0,0,0,0,0,0.3777,0.3779,0.3931,0.3932,0.3934,0.4029,0.403,0.4031,0.4067,0.4067,0.4066,0.4066,0.4167,0.4171,0.4174,0,0,0,0,0,0,0,0,0,0,0,0,0,0.3856,0.378,0.3931,0.3963,0.3967,0.4028,0.403,0.4032,0.4067,0.4067,0.4066,0.4066,0.4166,0.417,0.4175,0.4213,0,0,0.4189,0.4191,0,0,0,0,0,0,0,0,0.3851,0.3862,0.3957,0.3961,0.3965,0.4035,0.4013,0.4092,0.4067,0.4029,0.4066,0.4066,0.4125,0.4132,0.4152,0.4217,0.4222,0.4189,0.4192,0.4194,0.4195,0,0,0,0,0,0,0,0.3846,0.3858,0.397,0.3958,0.3963,0.3973,0.3983,0.4028,0.4078,0.4032,0.4035,0.4046,0.4127,0.4147,0.4155,0.4223,0.4189,0.4193,0.4196,0.4198,0.4325,0.4325,0,0,0,0,0,0,0.3835,0.3853,0.3967,0.3973,0.3906,0.3976,0.3988,0.4013,0.4078,0.4087,0.4047,0.4048,0.414,0.4149,0.4158,0.4207,0.4194,0.4198,0.4201,0.4324,0.4325,0.4325,0,0,0,0,0,0,0.3831,0.3845,0.3963,0.3914,0.3929,0.3979,0.4007,0.4015,0.4036,0.4089,0.4098,0.4058,0.414,0.4152,0.4199,0.4211,0.42,0.4204,0.4323,0.4324,0.4325,0.4304,0,0,0,0,0,0,0.3827,0.3843,0.3858,0.3914,0.3932,0.4001,0.4008,0.4018,0.4044,0.4046,0.4102,0.4111,0.414,0.4192,0.4203,0.4217,0.4208,0.4322,0.4324,0.4325,0.4304,0.4304,0.4304,0,0,0,0,0,0.3821,0.3848,0.3858,0.3872,0.3951,0.4002,0.4012,0.4045,0.4045,0.406,0.4093,0.4109,0.4207,0.4196,0.4209,0.4225,0.4322,0.4323,0.4325,0.4304,0.4304,0.4304,0,0,0,0,0,0,0.3794,0.3856,0.3868,0.3914,0.3952,0.4008,0.4028,0.4044,0.4084,0.4084,0.4123,0.4136,0.4179,0.4207,0.4193,0.4264,0.4266,0.427,0.4245,0.4246,0.4246,0.4239,0.4212,0,0,0,0,0,0.3793,0.3828,0.3881,0.3917,0.3935,0.3978,0.4001,0.4023,0.4064,0.4081,0.4118,0.4158,0.4198,0.4223,0.4263,0.4307,0.4321,0.4324,0.4325,0.4325,0.4328,0.4354,0.4356,0.433,0.433,0.433,0,0,0.3792,0.383,0.385,0.3912,0.3944,0.398,0.3992,0.403,0.4057,0.4087,0.4133,0.4162,0.4209,0.4255,0.4277,0.4279,0.4338,0.4327,0.4326,0.433,0.4356,0.4358,0.436,0.4331,0.4331,0.4331,0,0,0.3808,0.3841,0.3874,0.3905,0.3954,0.3982,0.399,0.4043,0.4062,0.4109,0.4132,0.4166,0.4233,0.4266,0.4291,0.4319,0.4336,0.4331,0.4333,0.4357,0.4359,0.4361,0.4372,0.4375,0.4334,0.4334,0.4334,0,0.3801,0.3856,0.3889,0.3926,0.3952,0.398,0.4014,0.4043,0.4102,0.412,0.4121,0.4206,0.424,0.4294,0.43,0.432,0.433,0.4325,0.4356,0.4359,0.4361,0.4371,0.4375,0.4333,0.4333,0.4333,0.4333,0,0.3845,0.3883,0.3904,0.3959,0.3988,0.4023,0.4061,0.4087,0.4106,0.4134,0.4181,0.4222,0.427,0.4285,0.4304,0.4341,0.4341,0.4349,0.4351,0.4362,0.4373,0.4377,0.4332,0.4332,0.4332,0.4333,0,0,0.3848,0.392,0.3927,0.3953,0.4007,0.4038,0.4074,0.412,0.4141,0.418,0.4212,0.4268,0.4276,0.4304,0.4327,0.4349,0.4368,0.4354,0.4356,0.4356,0.4412,0.4407,0.4411,0.4379,0.438,0.438,0.4409,0,0.3872,0.3938,0.3968,0.4021,0.4056,0.4082,0.4114,0.4151,0.4178,0.4212,0.4242,0.4282,0.4288,0.4306,0.4328,0.4361,0.438,0.4359,0.4409,0.4411,0.4398,0.4416,0.4411,0.4435,0.4413,0.4413,0.4414,0,0.3909,0.3948,0.4004,0.4054,0.407,0.4098,0.4143,0.4175,0.4217,0.4235,0.4267,0.4289,0.4328,0.4326,0.4381,0.4366,0.4389,0.4408,0.441,0.4416,0.4414,0.4424,0.4444,0.4448,0.4421,0.442,0.442,0,0.3906,0.3972,0.4014,0.4035,0.4094,0.4113,0.4139,0.4181,0.4207,0.4246,0.4263,0.4307,0.4331,0.4364,0.4397,0.4392,0.4449,0.445,0.4465,0.4465,0.4477,0.4476,0.4501,0.449,0.449,0.449,0.4489,0,0.3931,0.3964,0.4013,0.4039,0.4077,0.4112,0.4148,0.4176,0.4213,0.4245,0.427,0.43,0.4341,0.4376,0.4402,0.4444,0.4454,0.447,0.4477,0.4469,0.4467,0.4484,0.4484,0.4491,0.449,0.449,0.449,0,0.3934,0.3969,0.4016,0.4068,0.4082,0.4108,0.4153,0.4179,0.4206,0.4246,0.4258,0.4302,0.4344,0.4379,0.4435,0.4453,0.4496,0.4504,0.4482,0.4485,0.4499,0.4497,0.4537,0.4545,0.4527,0.4527,0.4527,0,0.3948,0.3974,0.4028,0.4051,0.4076,0.4113,0.4139,0.4174,0.4201,0.425,0.4271,0.4314,0.4351,0.4417,0.4455,0.4497,0.4506,0.4517,0.4513,0.4504,0.4507,0.4506,0.4509,0.4518,0.4518,0.4518,0.4518,0,0.3968,0.3984,0.4021,0.4063,0.4094,0.4129,0.4165,0.4183,0.4224,0.4252,0.4295,0.4324,0.438,0.4424,0.447,0.4497,0.4515,0.4519,0.4525,0.4517,0.4503,0.4511,0.4483,0.4518,0.4518,0.4518,0.4518,0.4518,0.3978,0.4002,0.4044,0.4084,0.4115,0.4148,0.4175,0.4206,0.4242,0.429,0.4309,0.4353,0.4394,0.4458,0.4485,0.452,0.4523,0.4531,0.4534,0.4536,0.4534,0.4497,0.4529,0.4529,0.4529,0.4529,0.4529,0,0.4,0.4028,0.4065,0.4114,0.4146,0.4158,0.4199,0.4224,0.4263,0.43,0.4335,0.4385,0.4426,0.4466,0.451,0.4531,0.454,0.4541,0.4541,0.4546,0.4529,0.452,0.4533,0.4533,0.4533,0.4533,0.4533,0.4533,0.4015,0.4057,0.4078,0.4135,0.4164,0.4207,0.4229,0.4259,0.4289,0.4343,0.4377,0.4403,0.4441,0.4488,0.4527,0.4538,0.4553,0.4552,0.4565,0.4548,0.4548,0.4547,0.4538,0.4555,0.4555,0.4579,0.4579,0.458]},{"header":{"parameterUnit":"m.s-1","parameterCategory":1,"la1":30.2991,"la2":30.254,"lo1":-89.0895,"lo2":-89.0444,"dy":0.0017,"dx":0.0017,"nx":28,"ny":28,"refTime":"2024-05-24T03:00:00:Z","depth":0,"parameterNumber":3,"parameterNumberName":"V-component_of_WINDS"},"data":[0,0,0,0,0,0,0,0,0,0,0,0,0,0,0,0,0,0,0,0,0,0,0,0,0,0,0,0,0,0,0,0,0,0,0,0,0,0,0,0,0,0,0,0,0,0,0,0,0,0,0,0,0,0,0,0,0,0,5.2171,5.2171,0,5.2163,5.2163,5.2163,5.2133,5.2132,5.2132,5.2131,5.2122,5.2122,5.2123,0,0,0,0,0,0,0,0,0,0,0,0,0,5.2161,5.2161,5.2171,5.2171,5.2171,5.2163,5.2163,5.2163,5.2133,5.2132,5.2131,5.2131,5.2122,5.2122,5.2123,0,0,0,0,0,0,0,0,0,0,0,0,0,5.216,5.2161,5.2171,5.2155,5.2154,5.2163,5.2163,5.2163,5.2133,5.2132,5.2131,5.213,5.2122,5.2122,5.2123,5.2147,0,0,5.2125,5.2125,0,0,0,0,0,0,0,0,5.216,5.2161,5.2158,5.2156,5.2155,5.2148,5.2156,5.2157,5.2133,5.2141,5.2131,5.213,5.2131,5.2131,5.2132,5.2146,5.2146,5.2125,5.2125,5.2125,5.2125,0,0,0,0,0,0,0,5.216,5.2161,5.2168,5.2158,5.2156,5.2148,5.2147,5.2156,5.2142,5.214,5.2138,5.2137,5.213,5.2131,5.2131,5.2146,5.2125,5.2125,5.2126,5.2126,5.2181,5.2182,0,0,0,0,0,0,5.2163,5.2161,5.2168,5.2168,5.2155,5.2149,5.2148,5.2151,5.2142,5.2139,5.2138,5.2136,5.2131,5.2131,5.2131,5.2159,5.2125,5.2126,5.2126,5.218,5.2181,5.2182,0,0,0,0,0,0,5.2163,5.2164,5.2168,5.2164,5.2164,5.2151,5.2154,5.2151,5.2152,5.214,5.2138,5.2142,5.213,5.213,5.2143,5.2158,5.2126,5.2127,5.2178,5.218,5.2181,5.2215,0,0,0,0,0,0,5.2162,5.2164,5.2173,5.2164,5.2164,5.2181,5.2155,5.2152,5.2153,5.215,5.2143,5.2141,5.2129,5.2143,5.2144,5.2158,5.2127,5.2177,5.2179,5.2181,5.2212,5.2217,5.2222,0,0,0,0,0,5.2162,5.2182,5.2173,5.2174,5.2175,5.2182,5.2182,5.2168,5.2155,5.2164,5.2156,5.2141,5.2156,5.2144,5.2145,5.216,5.2176,5.2178,5.2181,5.221,5.2216,5.2222,0,0,0,0,0,0,5.2192,5.2181,5.2171,5.2188,5.2186,5.2177,5.2187,5.2175,5.2177,5.2174,5.2157,5.2155,5.2171,5.2167,5.2154,5.2183,5.2164,5.2166,5.2186,5.2191,5.2196,5.2197,5.2128,0,0,0,0,0,5.2201,5.2207,5.2197,5.2213,5.2213,5.2201,5.2203,5.2193,5.219,5.2189,5.2182,5.218,5.2185,5.2188,5.2191,5.2212,5.221,5.2223,5.2227,5.2231,5.2234,5.2245,5.2251,5.219,5.219,5.219,0,0,5.2218,5.2213,5.2218,5.2219,5.2217,5.2224,5.22,5.2209,5.2214,5.219,5.2202,5.2198,5.2194,5.2212,5.2219,5.2208,5.225,5.2234,5.2238,5.2238,5.2248,5.2254,5.2259,5.2192,5.2192,5.2191,0,0,5.2255,5.2251,5.2265,5.2263,5.226,5.2251,5.2255,5.2248,5.2244,5.2256,5.2238,5.2245,5.2252,5.2251,5.2251,5.2288,5.2274,5.229,5.2314,5.2326,5.233,5.2335,5.2348,5.2353,5.2292,5.2293,5.2293,0,5.2277,5.2288,5.2274,5.2284,5.2285,5.2265,5.2279,5.2277,5.2275,5.2277,5.2265,5.2275,5.2271,5.2288,5.2298,5.2298,5.2302,5.229,5.2331,5.2335,5.2339,5.2352,5.2357,5.2294,5.2294,5.2294,5.2294,0,5.2316,5.2324,5.2335,5.2334,5.2337,5.2349,5.2337,5.2341,5.2331,5.2324,5.2338,5.2332,5.2335,5.2338,5.2328,5.2354,5.2348,5.2334,5.2314,5.2347,5.2358,5.2363,5.2297,5.2296,5.2296,5.2295,0,0,5.237,5.2362,5.2367,5.2366,5.2362,5.2367,5.2379,5.2381,5.2386,5.2385,5.2394,5.2402,5.239,5.239,5.238,5.239,5.242,5.2375,5.2374,5.2384,5.2449,5.246,5.2466,5.2411,5.2412,5.2413,5.245,0,5.2405,5.2424,5.2412,5.2434,5.2441,5.2422,5.2432,5.2431,5.2425,5.243,5.2423,5.2429,5.2412,5.2412,5.2421,5.2415,5.2433,5.2412,5.242,5.2421,5.2422,5.2472,5.2483,5.2518,5.2454,5.2455,5.2456,0,5.2448,5.245,5.2472,5.2467,5.247,5.2479,5.2481,5.2486,5.2484,5.2479,5.2481,5.2468,5.2479,5.246,5.2475,5.2461,5.2463,5.2461,5.2462,5.2462,5.244,5.2474,5.2529,5.2534,5.2463,5.2462,5.2462,0,5.2486,5.2494,5.2509,5.2509,5.2503,5.251,5.2508,5.2505,5.2508,5.251,5.2511,5.2514,5.2516,5.2519,5.2508,5.2494,5.2525,5.2504,5.2521,5.2521,5.2528,5.2528,5.2585,5.253,5.253,5.253,5.253,0,5.2526,5.2541,5.2526,5.2535,5.2551,5.2537,5.2553,5.2549,5.2547,5.2554,5.2538,5.2546,5.2531,5.2537,5.2528,5.2543,5.2544,5.254,5.2538,5.2542,5.2542,5.2543,5.2541,5.2531,5.2531,5.253,5.253,0,5.2571,5.2562,5.2576,5.257,5.2569,5.2581,5.2575,5.2583,5.2577,5.2587,5.2589,5.2579,5.2585,5.2575,5.258,5.2574,5.2594,5.2588,5.2595,5.2593,5.2611,5.261,5.2671,5.2678,5.2619,5.2619,5.262,0,5.2597,5.2608,5.2603,5.2608,5.2607,5.2614,5.2617,5.2604,5.2608,5.2607,5.2616,5.2621,5.2625,5.2637,5.263,5.2634,5.2628,5.2649,5.2628,5.2632,5.2628,5.2628,5.2629,5.2653,5.2654,5.2654,5.2655,0,5.2645,5.264,5.2646,5.265,5.2654,5.2656,5.2657,5.2662,5.2649,5.2654,5.2661,5.2664,5.267,5.2676,5.2678,5.2676,5.2663,5.2661,5.2666,5.267,5.2674,5.2672,5.2607,5.266,5.2659,5.2659,5.2659,5.2658,5.2682,5.2691,5.2689,5.2696,5.2696,5.2698,5.2705,5.27,5.2706,5.271,5.2702,5.2711,5.271,5.2712,5.2711,5.2719,5.2709,5.2715,5.2717,5.2719,5.2722,5.2673,5.2719,5.2719,5.2719,5.2718,5.2718,0,5.2729,5.2728,5.2734,5.2737,5.2742,5.273,5.2731,5.2736,5.2745,5.2745,5.2749,5.2758,5.2764,5.2757,5.2762,5.2769,5.2764,5.2771,5.277,5.277,5.273,5.2726,5.2775,5.2775,5.2775,5.2775,5.2775,5.2775,5.2755,5.277,5.2765,5.278,5.2778,5.2788,5.2789,5.2791,5.2791,5.2801,5.2806,5.2803,5.28,5.2805,5.281,5.2808,5.2811,5.282,5.2816,5.2778,5.2773,5.2767,5.2764,5.2821,5.2821,5.2856,5.2856,5.2857]}]]